Tucson, AZ

7:16 PM MST on February 24, 2017 (GMT -0700)
Tucson International

Weather History for KTUS - September, 2015

Change the Weather History Date:

Monday, September 7, 2015

  Actual Average Record
Temperature  
Mean Temperature 86 °F 84 °F  
Max Temperature 98 °F 97 °F 105 °F (2000)
Min Temperature 74 °F 71 °F 57 °F (1920)
Degree Days  
Heating Degree Days 0 0  
Month to date heating degree days 0 0  
Since 1 July heating degree days 0 0  
Cooling Degree Days 21 19  
Month to date cooling degree days 120 136  
Year to date cooling degree days 2800 2546  
Growing Degree Days 36 (Base 50)    
Moisture  
Dew Point 60 °F    
Average Humidity 49    
Maximum Humidity 73    
Minimum Humidity 24    
Precipitation  
Precipitation 0.00 in 0.04 in 1.25 in (2016)
Month to date precipitation 0.78 0.39  
Year to date precipitation 8.92 8.30  
Sea Level Pressure  
Sea Level Pressure 29.82 in    
Wind  
Wind Speed 7 mph (SW)    
Max Wind Speed 15 mph    
Max Gust Speed 17 mph    
Visibility 10 miles    
Events      
T = Trace of Precipitation, MM = Missing Value Source: NWS Daily Summary

Daily Weather History Graph

Daily Weather History Graph

Search for Another Location

Airport or City:

Trip Planner

Search our weather history database for the weather conditions in past years. The results will help you decide how hot, cold, wet, or windy it might be!

Date:

Astronomy

Sep. 07, 2015 Rise Set
Actual Time 6:02 AM MST 6:40 PM MST
Civil Twilight 5:37 AM MST 7:05 PM MST
Nautical Twilight 5:08 AM MST 7:34 PM MST
Astronomical Twilight 4:39 AM MST 8:03 PM MST
Moon 1:05 AM MST (9/7) 3:05 PM MST (9/7)
Length of Visible Light 13h 27m
Length of Day
12h 37m
Waning Crescent, 26% of the Moon is Illuminated
Sep 7
Waning Crescent
Sep 12
New
Sep 21
First Quarter
Sep 27
Full
Oct 4
Last Quarter

Hourly Weather History & Observations

Time (MST) Temp. Heat Index Dew Point Humidity Pressure Visibility Wind Dir Wind Speed Gust Speed Precip Events Conditions
12:53 AM 78.1 °F - 61.0 °F 56% 29.86 in 10.0 mi SSE 11.5 mph - N/A   Clear
1:53 AM 75.9 °F - 62.1 °F 62% 29.85 in 10.0 mi SSE 8.1 mph - N/A   Clear
2:53 AM 77.0 °F - 62.1 °F 60% 29.83 in 10.0 mi SE 12.7 mph - N/A   Clear
3:53 AM 75.9 °F - 62.1 °F 62% 29.83 in 10.0 mi South 5.8 mph - N/A   Clear
4:53 AM 75.9 °F - 63.0 °F 64% 29.84 in 10.0 mi SE 6.9 mph - N/A   Clear
5:53 AM 73.9 °F - 64.0 °F 71% 29.86 in 10.0 mi SSE 6.9 mph - N/A   Clear
6:53 AM 75.0 °F - 64.0 °F 69% 29.88 in 10.0 mi SE 10.4 mph - N/A   Clear
7:53 AM 78.1 °F - 63.0 °F 60% 29.89 in 10.0 mi SE 10.4 mph - N/A   Clear
8:53 AM 82.9 °F 83.7 °F 62.1 °F 49% 29.89 in 10.0 mi South 9.2 mph - N/A   Clear
9:53 AM 84.9 °F 85.9 °F 63.0 °F 48% 29.90 in 10.0 mi Calm Calm - N/A   Clear
10:53 AM 88.0 °F 87.9 °F 61.0 °F 40% 29.89 in 10.0 mi Calm Calm - N/A   Clear
11:53 AM 91.0 °F 90.2 °F 59.0 °F 34% 29.86 in 10.0 mi Variable 4.6 mph - N/A   Clear
12:53 PM 93.0 °F 92.3 °F 59.0 °F 32% 29.83 in 10.0 mi NW 6.9 mph - N/A   Clear
1:53 PM 96.1 °F 96.0 °F 60.1 °F 30% 29.80 in 10.0 mi North 9.2 mph - N/A   Clear
2:53 PM 97.0 °F 96.5 °F 59.0 °F 28% 29.77 in 10.0 mi North 9.2 mph - N/A   Clear
3:53 PM 95.0 °F 94.0 °F 57.9 °F 29% 29.75 in 10.0 mi Calm Calm - N/A   Clear
4:53 PM 97.0 °F 95.3 °F 55.9 °F 25% 29.74 in 10.0 mi NW 4.6 mph - N/A   Clear
5:53 PM 95.0 °F 94.0 °F 57.9 °F 29% 29.75 in 10.0 mi NNW 5.8 mph - N/A   Clear
6:53 PM 91.9 °F 91.2 °F 59.0 °F 33% 29.77 in 10.0 mi NW 5.8 mph - N/A   Clear
7:53 PM 91.0 °F 90.5 °F 60.1 °F 35% 29.78 in 10.0 mi Calm Calm - N/A   Clear
8:53 PM 90.0 °F 88.8 °F 57.9 °F 34% 29.79 in 10.0 mi NW 8.1 mph - N/A   Clear
9:53 PM 89.1 °F 87.7 °F 57.0 °F 34% 29.80 in 10.0 mi WNW 4.6 mph - N/A   Clear
10:53 PM 86.0 °F 85.7 °F 60.1 °F 41% 29.81 in 10.0 mi West 5.8 mph - N/A   Clear
11:53 PM 84.0 °F 84.0 °F 60.1 °F 44% 29.80 in 10.0 mi WSW 9.2 mph - N/A   Clear